TimeCEST,TemperatureF,Dew PointF,Humidity,Sea Level PressureIn,VisibilityMPH,Wind Direction,Wind SpeedMPH,Gust SpeedMPH,PrecipitationIn,Events,Conditions,WindDirDegrees,DateUTC
12:15 AM,57.2,57.2,100,29.74,6.2,ESE,6.7,-,N/A,Rain,Light Rain Showers,120,2013-05-17 22:15:00
12:45 AM,57.2,57.2,100,29.77,-9999.0,SE,2.2,-,N/A,,Clear,130,2013-05-17 22:45:00
1:15 AM,57.2,57.2,100,29.77,-9999.0,South,4.5,-,N/A,,Clear,170,2013-05-17 23:15:00
1:45 AM,57.2,57.2,100,29.80,-9999.0,South,4.5,-,N/A,,Clear,190,2013-05-17 23:45:00
2:15 AM,57.2,57.2,100,29.80,-9999.0,SW,8.9,-,N/A,,Clear,220,2013-05-18 00:15:00
2:45 AM,57.2,57.2,100,29.80,-9999.0,SW,8.9,-,N/A,,Clear,220,2013-05-18 00:45:00
3:15 AM,55.4,55.4,100,29.80,-9999.0,SW,6.7,-,N/A,,Clear,220,2013-05-18 01:15:00
3:45 AM,-9999,-9999,N/A,-9999,0.9,SSW,6.7,-,N/A,Fog,Clear,200,2013-05-18 01:45:00
4:15 AM,55.4,55.4,100,29.83,5.0,South,2.2,-,N/A,,Partly Cloudy,170,2013-05-18 02:15:00
4:45 AM,53.6,53.6,100,29.83,-9999.0,South,4.5,-,N/A,,Clear,190,2013-05-18 02:45:00
5:15 AM,55.4,55.4,100,29.83,-9999.0,South,4.5,-,N/A,,Clear,190,2013-05-18 03:15:00
5:45 AM,55.4,55.4,100,29.86,-9999.0,South,4.5,-,N/A,,Clear,190,2013-05-18 03:45:00
6:15 AM,55.4,53.6,94,29.86,-9999.0,SSW,4.5,-,N/A,,Clear,200,2013-05-18 04:15:00
6:45 AM,-9999,-9999,N/A,-9999,6.2,South,6.7,-,N/A,,Clear,190,2013-05-18 04:45:00
7:45 AM,60.8,53.6,77,29.89,-9999.0,SSW,11.2,-,N/A,,Clear,210,2013-05-18 05:45:00
8:15 AM,62.6,53.6,72,29.89,-9999.0,SW,8.9,20.1,N/A,,Clear,220,2013-05-18 06:15:00
8:45 AM,64.4,53.6,68,29.89,-9999.0,SW,11.2,-,N/A,,Clear,220,2013-05-18 06:45:00
9:15 AM,66.2,53.6,64,29.92,-9999.0,SW,13.4,-,N/A,,Clear,230,2013-05-18 07:15:00
9:45 AM,-9999,-9999,N/A,-9999,6.2,SSW,13.4,-,N/A,,Clear,210,2013-05-18 07:45:00
10:15 AM,68.0,51.8,56,29.92,6.2,SW,15.7,-,N/A,,Partly Cloudy,220,2013-05-18 08:15:00
10:45 AM,68.0,50.0,52,29.92,6.2,SW,15.7,-,N/A,,Partly Cloudy,230,2013-05-18 08:45:00
11:15 AM,69.8,51.8,53,29.95,6.2,SW,15.7,-,N/A,,Scattered Clouds,230,2013-05-18 09:15:00
11:45 AM,69.8,51.8,53,29.95,6.2,SW,13.4,-,N/A,,Scattered Clouds,230,2013-05-18 09:45:00
12:15 PM,71.6,48.2,43,29.95,6.2,WSW,13.4,-,N/A,,Scattered Clouds,240,2013-05-18 10:15:00
12:45 PM,-9999,-9999,N/A,-9999,6.2,SW,13.4,-,N/A,,Clear,220,2013-05-18 10:45:00
1:15 PM,71.6,50.0,46,29.95,-9999.0,SW,13.4,-,N/A,,Clear,230,2013-05-18 11:15:00
1:45 PM,71.6,46.4,41,29.95,-9999.0,SW,13.4,-,N/A,,Clear,230,2013-05-18 11:45:00
2:15 PM,73.4,48.2,41,29.95,-9999.0,SW,11.2,-,N/A,,Clear,220,2013-05-18 12:15:00
2:45 PM,73.4,50.0,44,29.95,-9999.0,SW,8.9,-,N/A,,Clear,230,2013-05-18 12:45:00
3:15 PM,73.4,48.2,41,29.95,-9999.0,SW,8.9,-,N/A,,Clear,230,2013-05-18 13:15:00
3:45 PM,-9999,-9999,N/A,-9999,6.2,SW,11.2,-,N/A,,Clear,230,2013-05-18 13:45:00
4:15 PM,73.4,48.2,41,29.95,-9999.0,WSW,6.7,-,N/A,,Clear,240,2013-05-18 14:15:00
4:45 PM,73.4,51.8,47,29.95,-9999.0,SW,8.9,-,N/A,,Clear,230,2013-05-18 14:45:00
5:15 PM,73.4,50.0,44,29.95,-9999.0,WSW,8.9,-,N/A,,Clear,240,2013-05-18 15:15:00
5:45 PM,75.2,48.2,38,29.95,-9999.0,SW,8.9,-,N/A,,Clear,230,2013-05-18 15:45:00
6:15 PM,73.4,48.2,41,29.95,-9999.0,WSW,8.9,-,N/A,,Clear,240,2013-05-18 16:15:00
6:45 PM,-9999,-9999,N/A,-9999,-9999.0,SW,8.9,-,N/A,,Clear,230,2013-05-18 16:45:00
7:15 PM,71.6,50.0,46,29.95,-9999.0,SW,6.7,-,N/A,,Clear,230,2013-05-18 17:15:00
7:45 PM,69.8,50.0,49,29.95,-9999.0,WSW,6.7,-,N/A,,Clear,250,2013-05-18 17:45:00
8:15 PM,66.2,51.8,60,29.95,-9999.0,SW,4.5,-,N/A,,Clear,230,2013-05-18 18:15:00
8:45 PM,66.2,53.6,64,29.95,-9999.0,SW,4.5,-,N/A,,Clear,230,2013-05-18 18:45:00
9:15 PM,64.4,53.6,68,29.95,-9999.0,SW,4.5,-,N/A,,Clear,220,2013-05-18 19:15:00
9:45 PM,-9999,-9999,N/A,-9999,-9999.0,Variable,4.5,-,N/A,,Clear,0,2013-05-18 19:45:00
10:15 PM,59.0,53.6,82,29.95,-9999.0,Calm,Calm,-,N/A,,Clear,0,2013-05-18 20:15:00
10:45 PM,59.0,53.6,82,29.95,-9999.0,South,2.2,-,N/A,,Clear,180,2013-05-18 20:45:00
11:15 PM,59.0,53.6,82,29.95,-9999.0,SSW,2.2,-,N/A,,Clear,200,2013-05-18 21:15:00
11:45 PM,57.2,55.4,94,29.95,-9999.0,South,2.2,-,N/A,,Clear,190,2013-05-18 21:45:00